Dewpoint
66 67 67 68 68 69 70 70 71 72 74 74 75 75 75 75 76 75 75 76 75 74 74 74 74 74 74 73 73 74 75 75 74 74 74 74 75 74 75 74 74 74 74 74 74 73 73 73 73 73 73 72 71 70 70 70 71 70 70 70 70 68 67 68 68 68 67 66 68 66 66 67 67 67 66 65 63 61 62 62 63 63 65 65 67
66 66 67 68 67 68 69 70 71 71 73 74 74 75 75 75 76 76 76 76 75 75 75 75 75 74 73 73 73 73 74 74 74 74 74 75 75 75 74 74 74 74 74 74 74 73 73 72 73 72 72 71 71 71 71 71 71 70 70 68 69 68 67 67 68 68 66 64 63 63 63 66 67 65 64 64 61 59 59 61 63 60 62 64 65
65 65 66 66 66 67 68 69 70 70 72 73 74 75 75 75 76 76 76 76 76 76 76 75 75 76 75 75 74 73 74 75 74 74 75 74 74 75 74 74 74 74 74 73 73 73 73 73 73 72 71 72 72 71 71 70 69 69 69 68 67 68 68 68 69 68 63 65 65 64 60 61 64 64 62 63 59 57 57 56 59 57 61 65 67
64 65 64 65 66 67 68 69 70 70 71 72 73 74 75 75 76 76 76 76 76 77 76 77 77 77 77 76 75 74 73 74 75 75 75 74 73 73 74 74 73 73 72 72 73 73 73 73 73 72 71 72 71 70 70 69 70 69 69 69 69 65 64 66 68 68 67 66 61 61 61 60 56 59 62 62 60 56 54 53 57 57 59 64 65
64 64 64 65 66 66 68 69 69 70 70 71 73 73 74 75 76 76 76 76 77 77 77 77 77 76 75 76 75 74 74 73 73 73 73 74 72 73 72 73 73 72 72 72 72 73 73 73 73 73 72 72 71 70 70 69 70 70 70 70 69 68 64 65 67 68 68 68 65 63 61 60 58 59 58 60 59 57 53 51 56 56 58 63 64
64 64 64 64 65 66 68 69 69 69 70 71 72 73 74 75 76 76 76 76 76 77 77 77 75 74 74 73 73 72 72 72 71 71 71 72 71 71 73 72 72 73 73 73 73 73 73 72 73 73 72 71 71 71 71 70 70 70 70 70 69 69 67 64 65 67 68 68 68 67 67 62 61 62 60 58 61 57 59 57 58 53 60 62 64
63 63 63 63 65 66 67 69 69 69 70 71 72 73 74 75 76 76 76 76 76 77 77 75 75 75 74 73 73 72 72 72 73 74 73 74 74 73 73 73 73 73 73 74 73 73 73 72 72 72 72 72 72 72 71 70 69 70 70 70 69 69 69 66 65 64 66 67 67 67 67 66 65 63 60 58 55 59 55 51 51 55 57 56 56
61 63 63 63 64 65 66 68 68 68 69 71 71 72 74 75 75 76 76 76 76 77 77 75 74 74 74 74 74 74 73 74 74 75 75 75 74 73 73 73 74 72 73 74 74 73 73 73 73 73 72 72 72 71 71 71 70 70 70 69 70 70 69 67 65 64 64 64 67 66 66 66 66 63 63 60 58 57 58 54 51 50 54 53 54
60 61 62 63 64 65 66 68 68 69 69 70 71 72 74 74 75 76 76 76 76 77 77 76 75 74 74 74 74 74 74 74 74 74 74 74 72 73 73 73 74 73 73 74 74 74 73 73 73 73 72 71 72 71 70 70 71 70 70 70 69 69 69 68 67 66 66 64 66 66 65 65 63 62 64 64 62 58 54 51 54 57 57 53 54
60 60 61 62 63 64 65 67 68 68 69 72 71 72 73 74 75 76 76 76 76 77 77 76 75 75 75 75 75 75 75 74 74 73 74 73 71 72 72 73 72 72 73 74 74 74 73 73 73 72 71 68 69 68 68 69 69 69 68 68 69 69 69 69 67 67 67 65 66 65 64 63 63 63 62 63 63 62 57 55 54 55 55 56 57
60 60 61 62 63 64 65 66 68 69 70 71 71 72 72 73 74 75 75 76 77 77 76 76 75 75 74 75 75 75 75 75 73 73 73 72 71 71 71 72 72 71 72 74 73 73 73 73 72 70 70 70 70 69 68 67 66 67 66 68 68 68 69 69 68 68 68 67 66 66 65 63 63 61 62 62 62 60 60 54 51 51 53 54 58
60 61 61 62 64 64 65 66 68 70 70 70 70 71 72 73 74 75 75 76 76 76 76 75 75 74 75 75 75 75 75 74 73 73 72 72 73 73 73 73 72 72 73 72 72 71 73 72 70 70 70 69 69 68 67 67 65 66 67 68 67 68 69 69 68 68 67 67 65 63 62 63 63 63 62 64 63 62 61 59 58 59 59 58 57
60 61 62 62 64 64 65 67 68 70 70 71 70 70 72 73 74 74 75 76 76 76 76 75 75 75 74 74 75 76 76 75 74 73 73 72 72 73 73 72 72 72 72 71 71 71 72 71 71 70 69 70 69 68 68 68 68 67 68 67 66 67 67 67 67 66 66 66 64 64 63 63 63 64 64 62 63 62 62 60 58 56 56 55 58
60 61 62 63 65 64 66 67 69 69 70 70 71 71 72 73 74 74 74 76 76 76 76 75 75 75 75 75 75 75 75 75 74 73 72 72 72 72 71 70 71 70 70 70 69 70 70 70 70 69 69 69 70 68 68 69 69 68 68 67 66 67 67 68 67 66 68 68 67 65 64 64 64 64 64 64 63 62 61 61 60 60 58 54 57
61 62 62 63 65 66 66 68 68 69 69 69 71 72 73 73 73 74 74 75 76 76 76 76 75 75 75 75 75 75 75 74 73 73 72 71 71 71 71 70 69 70 70 70 71 71 71 70 69 68 68 68 68 68 67 68 69 69 68 68 66 67 67 67 67 66 66 66 67 67 65 65 64 66 64 64 64 63 62 61 60 58 55 55 55
60 61 62 64 65 66 66 67 68 68 70 69 71 72 72 72 73 74 74 75 75 75 76 75 75 75 75 75 75 74 75 74 73 72 72 71 71 71 71 71 70 70 71 71 71 70 70 69 69 67 68 67 67 67 67 65 68 67 68 68 68 67 68 68 68 67 65 66 66 68 68 64 65 65 65 66 66 65 64 63 62 60 58 55 55
59 60 62 65 65 66 67 68 67 68 68 70 72 72 72 72 73 74 74 75 75 75 75 75 75 75 75 74 74 75 74 74 72 72 70 70 71 70 70 70 71 71 70 70 71 71 70 69 68 66 67 67 66 67 66 66 67 67 66 68 68 66 69 68 66 66 66 62 64 66 67 66 66 67 67 66 67 67 65 65 64 61 60 58 56
60 62 64 65 65 66 66 66 67 67 68 70 72 73 73 73 73 73 74 74 74 75 75 75 75 75 74 74 75 74 73 73 72 71 70 70 70 70 70 70 70 69 69 70 70 70 70 69 68 68 67 66 65 65 67 67 68 67 66 67 65 66 67 67 67 67 66 66 65 65 66 65 66 66 65 66 68 69 67 66 65 63 62 59 58
59 60 63 63 64 65 66 66 66 68 70 71 72 72 72 73 73 72 73 73 74 74 75 75 75 73 74 74 74 73 72 72 71 72 71 69 68 68 68 69 69 70 70 70 70 69 70 69 69 68 67 67 68 67 68 67 68 67 67 65 66 68 67 65 67 67 65 66 66 65 67 66 67 67 67 67 68 68 67 66 64 64 63 62 60
58 59 60 62 63 64 65 65 66 68 70 70 70 70 70 71 72 72 72 74 74 74 75 74 73 74 74 74 74 73 72 71 71 71 70 69 68 68 68 68 69 69 69 70 69 69 69 68 67 65 65 66 67 66 67 67 68 67 66 64 64 68 67 66 64 65 65 66 66 66 67 67 67 67 67 67 66 67 66 64 64 63 63 63 61
59 59 60 61 62 63 64 66 66 68 69 68 68 69 69 69 71 71 72 72 72 73 74 74 74 74 74 73 72 72 71 70 69 70 70 69 69 69 68 68 70 69 69 69 69 69 70 69 67 67 66 67 68 66 68 68 68 68 68 68 67 68 67 66 66 65 66 68 68 67 67 67 68 68 66 66 65 66 66 64 64 63 62 62 62
60 59 59 60 62 63 64 66 67 67 68 68 68 68 68 69 69 70 70 71 70 72 74 74 74 73 73 73 72 70 70 69 68 68 69 69 68 68 68 69 68 69 69 68 70 69 69 69 67 68 69 68 68 69 66 68 68 68 67 67 67 68 68 67 66 66 66 67 69 68 67 67 68 68 67 66 66 65 65 64 63 63 62 62 63
59 60 59 60 63 64 65 68 69 69 69 69 69 68 68 69 69 70 70 70 70 70 73 74 74 73 73 72 71 69 69 68 67 67 65 65 66 68 68 67 66 66 68 68 69 68 69 69 68 68 69 68 69 68 68 68 68 68 66 65 65 66 66 65 65 65 65 67 68 68 65 65 67 68 68 67 66 66 65 65 64 64 64 63 63
60 60 60 62 64 66 68 69 70 70 70 70 69 70 69 69 69 69 69 70 70 70 71 73 73 73 72 72 71 68 67 65 64 65 63 64 63 66 67 67 67 65 66 68 68 68 69 69 68 68 68 68 68 68 69 69 68 68 67 66 67 68 67 66 65 65 64 66 65 65 64 64 66 67 67 66 66 66 66 65 65 65 65 65 64
61 62 64 65 64 67 69 69 71 71 70 71 70 70 69 70 69 69 69 69 70 71 70 71 72 71 71 71 69 67 67 66 63 62 62 62 63 63 65 65 66 65 66 67 68 68 68 68 67 68 68 68 68 69 69 68 68 68 68 67 67 68 68 67 67 67 66 66 66 65 64 66 67 66 66 66 66 66 66 65 65 65 65 64 64
63 64 65 65 66 68 69 70 71 70 69 71 71 70 70 70 70 69 69 70 70 70 70 70 70 70 71 70 68 65 67 65 63 62 62 62 62 63 64 64 65 65 66 65 66 66 67 68 68 68 68 69 69 69 69 68 66 67 68 67 67 68 67 67 67 67 67 67 66 66 66 67 67 66 65 65 66 66 66 66 65 65 65 65 65
61 64 65 68 69 68 69 70 70 69 70 71 70 70 69 71 71 70 70 70 71 71 72 70 70 69 70 68 65 67 67 65 64 63 64 64 63 62 63 63 63 63 63 63 64 66 67 67 68 69 68 69 69 69 68 68 68 69 69 68 67 67 67 67 67 66 65 66 66 66 67 67 67 66 65 65 65 66 66 66 66 66 65 65 64
63 64 65 65 67 69 70 70 69 69 71 70 70 70 70 71 71 71 70 70 70 72 72 71 71 70 70 66 66 69 67 67 65 66 66 64 64 64 64 65 64 63 62 62 63 65 66 66 68 68 68 68 68 68 68 68 69 68 68 68 67 67 66 66 67 67 66 65 65 65 63 65 67 66 66 66 67 66 66 66 66 65 64 64 62
60 63 65 66 67 69 69 69 70 70 70 70 70 71 72 72 71 71 70 70 71 72 72 72 72 71 70 67 69 69 69 68 68 68 66 65 66 66 66 66 65 64 63 63 64 65 65 66 67 67 67 67 67 67 68 68 68 68 68 67 67 67 67 66 66 66 66 66 66 66 65 64 66 67 67 66 65 65 65 65 65 65 65 65 64
60 62 63 66 67 68 69 70 71 70 71 70 71 72 71 71 70 70 72 71 72 73 73 72 71 71 70 69 68 68 68 68 69 67 66 66 64 65 65 65 65 65 64 64 64 64 65 65 66 66 67 67 67 67 65 62 63 67 68 68 67 67 67 66 67 66 66 66 65 65 65 66 66 65 65 64 62 61 61 63 64 65 65 66 65
60 63 63 65 66 67 68 69 70 70 71 71 71 72 71 69 69 70 71 71 71 73 73 72 72 71 71 70 69 67 67 67 68 68 66 66 66 65 64 64 64 64 64 65 65 65 64 64 64 65 66 66 67 66 62 61 61 62 66 67 67 67 67 67 66 66 66 65 66 66 66 66 66 65 65 64 63 62 61 61 60 60 61 64 64
60 62 62 64 64 66 67 68 68 69 70 71 72 71 71 70 70 70 70 70 71 71 71 73 73 72 71 69 68 68 68 68 69 67 66 65 65 64 64 64 64 64 65 66 66 65 66 65 65 65 65 65 65 62 60 60 61 61 62 66 66 66 66 66 66 66 66 65 65 64 64 65 65 64 64 65 65 63 61 61 60 60 59 59 59
63 63 63 62 61 63 66 66 66 67 69 69 71 70 71 71 71 71 71 70 71 71 73 73 73 73 71 69 69 68 68 68 66 66 65 65 64 64 64 64 65 67 67 66 66 66 66 66 66 65 64 64 64 62 60 60 60 60 60 62 65 66 66 66 66 66 66 66 63 63 63 62 64 64 62 63 66 66 65 62 61 61 60 59 59
60 61 61 62 63 63 64 65 67 68 67 69 70 69 70 70 71 72 72 72 72 72 73 73 73 72 71 69 69 68 67 66 65 66 66 66 65 64 65 66 67 68 67 67 67 67 67 66 65 64 65 65 65 61 59 58 58 58 59 61 64 65 66 66 66 66 66 64 64 63 63 62 62 64 66 65 65 65 64 64 63 63 62 62 62
61 62 60 64 65 66 66 66 64 64 66 67 68 69 71 71 72 72 73 73 73 73 73 73 73 72 71 69 69 68 67 67 67 66 67 66 66 66 67 68 68 67 67 67 65 65 65 65 65 65 65 66 64 60 58 57 57 57 58 60 64 65 66 67 67 66 65 64 64 63 64 63 63 64 65 64 63 62 63 62 62 61 60 61 61
59 63 65 66 63 64 63 65 64 66 66 66 67 68 68 68 70 71 71 72 73 73 72 72 72 72 70 69 68 68 68 67 67 66 66 66 66 66 66 66 67 67 68 68 67 65 65 64 65 66 66 65 64 60 58 57 57 56 58 63 65 66 66 66 65 65 64 64 63 63 63 63 64 64 59 57 59 60 60 61 61 60 60 59 58
62 61 62 66 65 65 63 68 67 65 66 65 66 66 67 68 69 70 72 71 71 72 72 72 71 71 71 69 68 68 68 67 67 66 66 66 66 67 66 65 64 64 63 64 64 65 66 66 66 66 65 65 65 62 58 56 56 56 57 64 65 65 65 65 64 64 64 63 63 63 63 63 64 63 58 55 56 57 60 60 59 58 58 57 57
61 64 65 67 67 66 68 64 66 66 66 67 67 67 69 70 70 70 71 70 71 71 72 72 71 72 71 70 69 69 68 67 67 66 66 66 66 66 65 64 63 61 61 61 63 65 67 67 66 66 65 65 65 63 57 54 54 55 58 64 65 65 65 65 64 64 63 63 63 63 63 63 62 62 53 54 54 57 59 59 57 57 57 56 56
64 63 63 64 67 67 65 67 67 66 67 68 68 68 69 70 71 69 69 70 71 71 72 71 71 71 71 70 70 69 68 67 67 66 66 66 65 64 63 62 61 61 62 65 65 65 66 66 65 65 64 64 64 61 55 55 54 54 58 64 64 64 64 64 63 63 63 62 64 62 61 61 61 58 52 53 53 56 59 59 58 57 57 56 56
65 66 67 69 69 68 67 66 66 68 68 70 70 70 71 71 70 68 69 69 70 71 71 71 71 71 71 71 70 69 68 67 67 65 65 64 63 61 61 62 64 65 66 68 67 66 65 66 66 66 65 65 65 66 64 55 54 53 55 65 65 63 63 64 63 62 62 62 62 62 59 55 54 53 51 50 50 51 57 58 58 57 56 56 56
65 66 67 67 67 67 67 67 69 69 67 68 68 69 69 69 69 68 68 68 69 70 71 71 71 70 70 70 69 68 67 67 65 64 63 62 62 63 64 63 63 65 66 67 66 67 66 67 66 65 64 64 64 64 62 55 53 53 54 57 63 63 63 64 64 62 60 60 60 60 59 53 51 51 50 48 47 49 51 57 58 57 56 56 52
66 67 66 66 66 68 67 67 68 68 68 68 70 69 69 69 68 68 68 67 69 70 70 70 70 70 70 69 68 68 67 66 65 64 62 61 63 62 62 63 64 65 64 64 67 67 66 65 64 64 64 64 63 62 63 58 53 51 51 53 61 62 63 63 62 61 60 59 59 59 59 55 51 50 49 47 46 49 51 56 58 47 47 48 54
64 64 65 65 66 65 64 65 65 66 67 67 68 69 68 68 68 68 67 68 69 69 70 70 70 69 69 67 67 66 65 64 64 64 62 62 61 60 62 64 64 63 64 65 67 66 65 65 65 64 63 63 64 64 59 61 51 49 48 50 53 58 55 63 60 59 60 59 59 59 59 51 49 46 46 46 46 48 50 53 46 46 46 49 52
61 62 63 64 65 64 65 66 66 67 68 68 69 69 68 68 68 68 68 68 69 69 70 69 68 68 67 66 66 65 65 64 64 63 63 62 62 62 63 65 64 66 66 67 66 66 65 64 63 61 61 61 62 64 58 56 54 49 48 49 51 52 54 59 59 58 58 57 58 59 57 47 46 43 44 47 49 50 54 44 45 47 49 51 52
63 62 64 64 64 64 64 65 66 67 67 68 69 68 68 68 68 68 68 68 69 69 69 68 67 67 66 66 65 65 65 64 63 62 62 62 62 63 62 63 66 67 67 66 65 65 63 62 62 60 61 61 61 62 61 57 54 50 48 47 48 49 50 52 58 58 58 58 50 45 44 45 46 44 45 48 49 48 47 48 48 49 50 51 52
64 66 65 64 64 65 65 65 66 66 66 68 69 68 69 69 67 67 68 68 68 68 68 67 67 66 66 65 65 64 65 63 62 62 62 61 60 60 60 62 65 65 65 65 65 62 63 62 61 62 63 62 61 60 60 59 54 52 49 48 48 49 50 51 55 56 51 50 49 48 48 47 47 50 54 55 55 55 50 49 48 48 50 50 49
65 66 66 66 64 64 64 64 64 64 64 64 66 67 69 68 67 67 67 68 68 67 66 66 66 65 66 65 64 63 62 62 63 61 60 60 59 61 62 65 66 66 66 66 63 62 61 60 62 62 64 63 62 61 60 59 59 57 56 54 54 53 52 52 55 56 53 54 55 54 55 53 53 53 51 48 50 49 52 50 48 47 48 48 49
65 65 66 66 66 64 65 65 67 66 65 64 64 65 66 66 64 64 65 68 67 66 65 65 64 65 64 64 64 64 63 62 63 62 62 64 66 65 66 66 66 66 66 64 62 62 61 61 61 61 62 62 61 60 60 59 58 57 57 56 56 54 53 56 54 54 55 54 53 52 53 55 54 53 52 52 50 51 50 48 46 45 45 46 44
65 64 65 66 67 66 67 67 67 66 66 65 65 64 64 65 64 64 66 66 65 65 65 64 64 63 63 64 62 63 64 64 65 65 64 62 64 65 66 66 60 59 62 61 62 61 61 60 60 61 61 60 61 61 60 55 59 53 55 54 56 54 54 55 51 49 54 54 55 53 53 51 52 52 50 50 48 47 47 46 46 45 44 44 45
66 66 67 66 66 66 66 66 66 66 65 65 65 65 65 63 64 64 65 66 66 64 65 64 63 63 63 64 64 64 64 64 64 63 60 54 46 42 46 57 57 50 47 44 43 60 59 58 58 60 60 59 59 60 48 46 44 44 44 44 43 44 46 49 46 45 52 52 51 51 50 50 49 48 47 47 46 46 46 45 45 45 43 42 41
65 65 65 66 67 66 66 65 65 64 63 63 64 64 65 63 65 65 64 66 66 66 64 64 64 63 63 64 64 64 64 64 63 61 59 55 53 51 40 40 44 45 43 39 42 44 48 54 59 56 52 46 47 44 43 41 40 40 40 39 40 40 40 41 42 50 52 51 50 49 48 47 48 46 45 45 46 45 45 43 42 41 42 43 41